Regional Weather Roundup
Issued by NWS

Home | Current Version | Previous Version | Graphics & Text | Print | Product List | Glossary Off
Versions: 1 2 3 4 5 6 7 8 9 10 11 12 13 14 15 16 17 18 19 20 21 22 23 24 25 26 27 28 29 30 31 32 33 34 35 36 37 38 39 40 41 42 43 44 45 46 47 48 49 50

000
ASUS43 KMKX 302300
RWRWI

WISCONSIN REGIONAL WEATHER ROUNDUP
NATIONAL WEATHER SERVICE MILWAUKEE/SULLIVAN WI
600 PM CDT THU JUL 30 2015

NOTE: "FAIR" INDICATES FEW OR NO CLOUDS BELOW 12,000 FEET WITH NO
SIGNIFICANT WEATHER AND/OR OBSTRUCTIONS TO VISIBILITY.

WIZ001-002-006>008-014>016-023>028-310000-
NORTHWEST WISCONSIN

CITY           SKY/WX    TMP DP  RH WIND       PRES   REMARKS
SUPERIOR ARPT  MOSUNNY   81  56  41 W17G24    29.91S HX  81
ASHLAND        SUNNY     81  53  37 W14G21    29.90S HX  80
HAYWARD        MOSUNNY   80  54  40 W8        29.96S HX  80
SIREN          MOSUNNY   80  51  35 W12G22    29.98S HX  80
CUMBERLAND     MOSUNNY   79  52  38 W15G28    29.99F
RICE LAKE      MOSUNNY   79  56  45 W10G18    30.00F HX  80
CHETEK         SUNNY     81  59  46 W12G18    29.99S HX  81
LADYSMITH      SUNNY     80  56  44 W15       29.99F HX  80
EAU CLAIRE     NOT AVBL
MENOMONIE      MOSUNNY   84  52  33 W15G24    30.00F HX  82
NEW RICHMOND   MOSUNNY   82  52  36 W15G21    30.02S HX  81
OSCEOLA        MOSUNNY   82  55  39 W15       30.03S HX  81
$$

WIZ003>005-009-010-017-018-310000-
NORTH CENTRAL WISCONSIN

CITY           SKY/WX    TMP DP  RH WIND       PRES   REMARKS
MANITOWISH WTR SUNNY     70  61  72 SW5       29.95S
ARBOR VITAE    SUNNY     72  56  56 CALM      29.96F
WOODRUFF       SUNNY     72  56  56 CALM      29.96F
RHINELANDER    MOSUNNY   74  56  53 W9        29.98F
EAGLE RIVER    MOSUNNY   68  60  74 SW5       29.96F
LAND O LAKES   MOSUNNY   72  57  59 W5        29.96S
PHILLIPS       SUNNY     76  59  55 W8        29.96S
TOMAHAWK       MOSUNNY   64  61  91 CALM      29.99F
MEDFORD        PTSUNNY   78  58  50 W15G21    29.99R
MERRILL        NOT AVBL
$$

WIZ029-030-035-036-043>047-310000-
CENTRAL WISCONSIN

CITY           SKY/WX    TMP DP  RH WIND       PRES   REMARKS
WAUSAU         PTSUNNY   80  54  40 W20G26    29.95F HX  80
MOSINEE        MOSUNNY   79  54  41 W18G24    29.99S
MARSHFIELD     MOSUNNY   79  52  38 W13G21    29.99S
STEVENS POINT  MOSUNNY   81  52  37 W9G22     29.98S HX  80
WAUPACA        MOSUNNY   86  50  28 W12G20    29.96S HX  83
WAUTOMA        NOT AVBL
WISC RAPIDS    SUNNY     84  50  30 W15G22    29.99S HX  82
CAMP DOUGLAS   NOT AVBL
$$

WIZ011>013-019>022-031-037>040-048>050-310000-
NORTHEAST WISCONSIN

CITY           SKY/WX    TMP DP  RH WIND       PRES   REMARKS
ANTIGO         LGT RAIN  73  55  53 W10       29.98S
SHAWANO        DRIZZLE   80  56  43 W13G21    29.94S HX  80
OCONTO         MOSUNNY   85  55  36 W12G17    29.90S HX  83
STURGEON BAY   MOSUNNY   82  55  39 NW10      29.93S HX  82
GREEN BAY      MOSUNNY   81  58  45 W10       29.93S HX  81
MANITOWOC      NOT AVBL
APPLETON       MOSUNNY   82  48  30 W17G23    29.96R HX  81
CLINTONVILLE   MOSUNNY   73  59  60 N3        29.95R
OSHKOSH        SUNNY     84  53  34 W14G23    29.95S HX  82
$$

WIZ032>034-041-042-053>061-310000-
SOUTHWEST WISCONSIN

CITY           SKY/WX    TMP DP  RH WIND       PRES   REMARKS
LA CROSSE      SUNNY     85  56  37 W15       30.01F HX  84
SPARTA         SUNNY     84  50  31 W13       30.02S HX  82
VIROQUA        SUNNY     81  54  39 W9        30.05F HX  80
BOSCOBEL       SUNNY     86  56  35 W9G17     30.03S HX  85
PRAIRIE DU CHI SUNNY     86  51  29 W13G20    30.03S HX  84
PLATTEVILLE    SUNNY     84  56  38 W13G21    30.04F HX  83
$$

WIZ056-057-062-063-064-067-068-310000-
SOUTH CENTRAL WISCONSIN

CITY           SKY/WX    TMP DP  RH WIND       PRES   REMARKS
REEDSBURG      SUNNY     85  54  34 NW16      30.00F HX  83
BARABOO/DELLS  SUNNY     84  47  26 NW15G24   30.00F HX  82
LONE ROCK      NOT AVBL
MINERAL POINT  SUNNY     84  48  28 W16G23    30.04F HX  82
MADISON        MOSUNNY   85  54  34 NW8       30.00S HX  83
MIDDLETON      SUNNY     86  48  26 NW16      30.01F HX  83
WATERTOWN      SUNNY     83  56  38 W14       29.99S HX  83
MONROE         SUNNY     84  54  34 W16G24    30.03F HX  83
JANESVILLE     SUNNY     88  52  29 W12G20    30.00F HX  85
$$

WIZ051-052-058>065-066-070>072-310000-
SOUTHEAST WISCONSIN

CITY           SKY/WX    TMP DP  RH WIND       PRES   REMARKS
MILWAUKEE      MOSUNNY   87  49  26 W20G31    29.97F HX  84
WAUKESHA       MOSUNNY   82  52  34 W20G25    30.00S HX  81
MILWAUKEE/TIMM NOT AVBL
RACINE         MOSUNNY   85  53  33 W9        29.99F HX  83
BURLINGTON     SUNNY     84  50  31 W13       30.00S HX  82
KENOSHA        SUNNY     84  56  38 W13       29.99F HX  83
FOND DU LAC    SUNNY     85  54  34 W9        29.96S HX  83
SHEBOYGAN      SUNNY     84  54  35 W15G23    29.94S HX  83
WEST BEND      SUNNY     84  46  26 W17G25    29.97S HX  82
JUNEAU         SUNNY     82  53  36 W12G22    30.00S HX  81
$$

LSZ147-162-310000-
LAKE SUPERIOR

STATION/POSITION TIME  TEMP    WIND        PRES    WAVE
                       AIR SEA DIR/SP/G            HT/PER
                 (UTC) (F)     (DEG/KT/KT) (MB)    (FT/S)
W MID LAKE BUOY  2150   61 53  240/ 14/ 16 1010.5F   2/ 4
DEVILS ISLAND    2200   69     230/ 12/ 13 1011.7F
PORT WING        2200   77     250/ 13/ 19 1012.5
SAXON HARBOR     2200   75                 1012.2F
$$

LMZ867-665-643>646-310000-
LAKE MICHIGAN

STATION/POSITION TIME  TEMP    WIND        PRES    WAVE
                       AIR SEA DIR/SP/G            HT/PER
                 (UTC) (F)     (DEG/KT/KT) (MB)    (FT/S)
CHAMBERS ISLAND  2200   80     310/  4/ 11 1011.9S
S GREEN BAY BUOY 2200   73 69  280/  8/ 10 1014.1S
N MID LAKE BUOY  2150   72 69  280/  6/  6 1011.4F   2/ 5
NORTHPORT PIER   2200   78     280/  3/  8 1011.9S
SISTER BAY       2214   79     300/ 12/ 14   N/A
ALGOMA LAKESHORE 2242          320/  7/ 12   N/A
KEWAUNEE LAKESHO 2200   84     280/ 10/ 17 1012.5F
SHEBOYGAN LAKESH 2200   84     280/ 14/ 18 1013.6F
PORT WASHINGTON  2200   88     280/ 11/ 23 1014.9S
ATWATER BUOY     2200   78 62  270/ 16/ 19 1016.2F
MILWAUKEE LAKESH 2200   85     290/ 13/ 19   N/A
KENOSHA   LAKESH 2200   85     290/ 19/ 25 1014.9S
$$

TC  - TEMPERATURE IN CELSIUS
VSB - VISIBILITY IN STATUTE MILES
WCI - WIND CHILL INDEX
HX  - HEAT INDEX



USA.gov is the U.S. government's official web portal to all federal, state and local government web resources and services.